Stations météo

Publicité
Besancon, France (7288): Température de l'air & dewpoint: 17.04.2017 23:00:00 - 23.04.2017 23:00:00 (CEST)Besancon, France (7288): Température de l'air 5cm: 17.04.2017 23:00:00 - 23.04.2017 23:00:00 (CEST)Besancon, France (7288): Température de l'air -20cm & Température de l'air -100cm: 17.04.2017 23:00:00 - 23.04.2017 23:00:00 (CEST)Besancon, France (7288): Vitesse du vent & gusts: 17.04.2017 23:00:00 - 23.04.2017 23:00:00 (CEST)Besancon, France (7288): Direction du vent: 17.04.2017 23:00:00 - 23.04.2017 23:00:00 (CEST)Besancon, France (7288): reduced air pressure: 17.04.2017 23:00:00 - 23.04.2017 23:00:00 (CEST)Besancon, France (7288): visibility: 17.04.2017 23:00:00 - 23.04.2017 23:00:00 (CEST)Besancon, France (7288): Ensoleillement: 17.04.2017 23:00:00 - 23.04.2017 23:00:00 (CEST)Besancon, France (7288): Quantités de précipitations: 17.04.2017 23:00:00 - 23.04.2017 23:00:00 (CEST)
Date & Time tt [°C] td [°C] tt 5cm [°C] tt -20cm [°C] tt -100cm [°C] ff [km/h] ff [knt] fx [km/h] fx [knt] dd ppp [hPa] vv [km] sd [min] rr [mm]
23.04.2017 23:00:00 7,3 -1,9 3,1 12,8 11,1 4 2 16 9 NNE 1021,7 - 0 0,0
23.04.2017 22:00:00 9,5 -2,2 6,1 12,8 11,1 9 5 23 12 NNE 1021,7 - 0 0,0
23.04.2017 21:00:00 10,8 -1,9 7,9 12,7 11,1 9 5 24 13 NNE 1021,3 - 19 0,0
23.04.2017 20:00:00 13,0 -1,4 12,4 12,6 11,1 17 9 29 16 N 1020,7 - 60 0,0
23.04.2017 19:00:00 14,7 -0,2 18,2 12,4 11,1 13 7 24 13 N 1020,4 - 60 0,0
23.04.2017 18:00:00 15,3 -0,1 21,7 12,3 11,1 11 6 29 16 N 1020,5 - 60 0,0
23.04.2017 17:00:00 15,3 0,3 24,1 12,0 11,1 9 5 29 16 N 1020,8 - 60 0,0
23.04.2017 16:00:00 14,7 -0,2 23,5 11,8 11,1 12 6 29 15 N 1021,3 25 60 0,0
23.04.2017 15:00:00 14,3 -0,2 26,2 11,6 11,1 13 7 27 15 N 1022,0 20 60 0,0
23.04.2017 14:00:00 13,8 -0,3 24,8 11,5 11,1 12 6 32 17 N 1022,5 - 60 0,0
23.04.2017 13:00:00 12,7 0,4 24,2 11,4 11,1 15 8 27 14 N 1023,2 - 60 0,0
23.04.2017 12:00:00 12,4 0,8 17,8 11,3 11,1 7 4 23 12 NNE 1023,7 20 54 0,0
23.04.2017 11:00:00 11,6 2,3 14,2 11,3 11,1 5 3 25 13 NE 1024,0 - 44 0,0
23.04.2017 10:00:00 9,7 2,8 12,7 11,4 11,1 6 4 22 12 NNE 1024,2 - 60 0,0
23.04.2017 09:00:00 7,7 2,8 3,3 11,6 11,1 9 5 20 11 NNE 1024,7 - 60 0,0
23.04.2017 08:00:00 4,4 2,4 -1,3 11,7 11,1 4 2 11 6 NNE 1025,1 15 42 0,0
23.04.2017 07:00:00 2,8 1,2 -1,8 11,8 11,1 3 1 10 5 N 1025,0 15 0 0,0
23.04.2017 06:00:00 3,2 1,2 -0,8 11,8 11,1 3 1 9 5 NNE 1024,6 - 0 0,0
23.04.2017 05:00:00 4,8 2,3 0,5 12,0 11,1 3 2 10 6 NNE 1024,4 - 0 0,0
23.04.2017 04:00:00 5,8 3,0 1,0 12,0 11,1 0 0 9 5 N 1024,3 - 0 0,0
23.04.2017 03:00:00 6,7 3,1 2,2 12,0 11,1 0 0 11 6 N 1024,2 - 0 0,0
23.04.2017 02:00:00 8,0 3,8 4,4 12,1 11,1 7 4 16 9 N 1024,5 - 0 0,0
23.04.2017 01:00:00 9,2 3,8 6,7 12,1 11,1 7 4 14 7 N 1024,4 - 0 0,0
23.04.2017 00:00:00 10,1 3,6 8,6 12,2 11,1 6 4 20 11 NNE 1024,3 - 0 0,0
22.04.2017 23:00:00 10,9 3,0 8,4 12,1 11,1 10 6 19 10 N 1024,2 - 0 0,0
22.04.2017 22:00:00 11,2 3,0 9,8 12,1 11,1 2 1 14 8 NNE 1024,1 - 0 0,0
22.04.2017 21:00:00 12,0 2,7 10,9 12,0 11,1 9 5 18 10 N 1023,6 - 0 0,0
22.04.2017 20:00:00 12,6 2,7 12,2 11,9 11,1 11 6 23 13 N 1023,3 - 0 0,0
22.04.2017 19:00:00 13,5 2,4 14,1 11,8 11,1 13 7 23 13 N 1023,2 - 0 0,0
22.04.2017 18:00:00 14,6 2,8 17,1 11,6 11,1 14 7 26 14 N 1023,0 - 7 0,0
22.04.2017 17:00:00 15,0 1,8 18,7 11,4 11,1 9 5 23 12 N 1023,2 - 20 0,0
22.04.2017 16:00:00 16,0 1,7 20,7 11,2 11,1 10 5 20 11 N 1023,6 20 24 0,0
22.04.2017 15:00:00 15,3 2,1 19,9 11,0 11,1 6 3 23 13 NW 1024,3 20 19 0,0
22.04.2017 14:00:00 15,0 2,2 19,3 10,9 11,1 8 5 20 11 WNW 1024,8 20 19 0,0
22.04.2017 13:00:00 14,3 1,9 18,8 10,8 11,1 12 6 23 12 N 1025,8 - 15 0,0
22.04.2017 12:00:00 14,6 1,5 15,7 10,7 11,1 8 4 24 13 NW 1026,0 20 40 0,0
22.04.2017 11:00:00 14,0 1,3 21,8 10,7 11,1 8 4 21 12 N 1026,3 20 60 0,0
22.04.2017 10:00:00 11,9 0,0 14,9 10,8 11,1 3 1 7 4 SE 1026,8 20 60 0,0
22.04.2017 09:00:00 6,0 -1,0 0,4 10,9 11,1 0 0 3 1 N 1027,9 - 60 0,0
22.04.2017 08:00:00 1,8 -2,3 -2,6 11,1 11,1 0 0 3 2 N 1028,4 20 42 0,0
22.04.2017 07:00:00 1,2 -2,6 -3,7 11,1 11,1 3 1 5 3 NNE 1028,1 20 0 0,0
22.04.2017 06:00:00 0,9 -2,7 -3,6 11,3 11,1 0 0 5 3 N 1028,1 20 0 0,0
22.04.2017 05:00:00 1,3 -2,5 -3,2 11,4 11,1 0 0 4 2 N 1028,3 - 0 0,0
22.04.2017 04:00:00 1,9 -2,4 -2,9 11,5 11,1 0 0 5 3 N 1028,3 - 0 0,0
22.04.2017 03:00:00 2,5 -2,0 -2,4 11,6 11,1 0 0 8 4 N 1028,5 - 0 0,0
22.04.2017 02:00:00 4,0 -2,4 -1,8 11,7 11,1 3 1 4 2 NNE 1028,7 - 0 0,0
22.04.2017 01:00:00 5,7 -2,7 -1,2 11,8 11,1 0 0 9 5 N 1028,9 - 0 0,0
22.04.2017 00:00:00 5,2 -2,4 -1,0 11,8 11,1 3 2 7 4 NNE 1029,0 - 0 0,0
21.04.2017 23:00:00 6,9 -2,0 0,6 11,8 11,1 3 1 4 2 NNE 1029,2 - 0 0,0
21.04.2017 22:00:00 9,4 -2,6 2,5 11,8 11,1 0 0 5 3 N 1028,8 - 0 0,0
21.04.2017 21:00:00 12,0 -4,2 5,8 11,7 11,2 4 2 13 7 NNW 1028,2 - 18 0,0
21.04.2017 20:00:00 14,7 -5,2 13,6 11,6 11,1 6 4 19 10 NNW 1027,7 - 60 0,0
21.04.2017 19:00:00 16,1 -5,1 20,3 11,4 11,2 7 4 20 11 N 1027,7 - 60 0,0
21.04.2017 18:00:00 16,3 -7,4 22,8 11,2 11,1 10 5 23 12 N 1027,8 - 60 0,0
21.04.2017 17:00:00 16,5 -7,9 24,7 10,9 11,2 8 5 28 15 NNE 1028,0 20 60 0,0
21.04.2017 16:00:00 16,0 -9,1 23,7 10,7 11,2 9 5 28 15 N 1028,8 20 60 0,0
21.04.2017 15:00:00 15,8 -7,2 26,9 10,5 11,2 7 4 29 16 NNE 1029,4 - 60 0,0
21.04.2017 14:00:00 14,2 -7,3 26,8 10,3 11,2 12 6 24 13 NNE 1030,5 - 60 0,0
21.04.2017 13:00:00 13,3 -6,3 24,7 10,2 11,2 10 5 27 15 NNE 1031,0 20 60 0,0
21.04.2017 12:00:00 11,9 -7,5 21,6 10,2 11,2 10 5 26 14 NNE 1031,6 20 60 0,0
21.04.2017 11:00:00 10,3 -6,5 17,9 10,2 11,2 11 6 23 12 N 1031,9 - 60 0,0
21.04.2017 10:00:00 8,0 -6,2 10,3 10,3 11,2 8 5 18 10 NNE 1031,9 20 60 0,0
21.04.2017 09:00:00 4,9 -5,8 0,4 10,5 11,2 6 3 14 8 NNE 1032,6 - 60 0,0
21.04.2017 08:00:00 1,0 -5,9 -3,6 10,6 11,2 3 1 13 7 ENE 1032,8 20 44 0,0
21.04.2017 07:00:00 -0,6 -6,2 -4,9 10,7 11,2 3 1 14 8 NNE 1032,7 20 0 0,0
21.04.2017 06:00:00 -0,3 -5,9 -4,7 10,8 11,2 5 3 14 7 NNE 1032,5 15 0 0,0
21.04.2017 05:00:00 0,3 -5,5 -4,7 10,9 11,2 0 0 11 6 N 1032,5 - 0 0,0
21.04.2017 04:00:00 0,6 -5,9 -4,0 11,1 11,3 3 1 13 7 NE 1032,7 - 0 0,0
21.04.2017 03:00:00 0,5 -5,7 -4,2 11,2 11,3 4 2 11 6 NNE 1033,1 - 0 0,0
21.04.2017 02:00:00 1,2 -5,7 -3,4 11,2 11,2 2 1 10 5 NNE 1033,2 - 0 0,0
21.04.2017 01:00:00 3,1 -5,6 -0,3 11,3 11,3 5 3 19 11 NNE 1033,3 - 0 0,0
21.04.2017 00:00:00 3,8 -5,4 -0,6 11,4 11,3 4 2 16 9 NNE 1033,3 - 0 0,0
20.04.2017 23:00:00 5,1 -5,3 1,8 11,4 11,3 3 2 18 10 NE 1033,2 - 0 0,0
20.04.2017 22:00:00 6,0 -5,4 2,6 11,4 11,3 4 2 19 11 NE 1032,9 - 0 0,0
20.04.2017 21:00:00 6,4 -5,6 3,0 11,4 11,3 4 2 20 11 NE 1032,4 - 6 0,0
20.04.2017 20:00:00 8,9 -5,4 7,7 11,3 11,3 5 3 22 12 NNE 1031,8 - 60 0,0
20.04.2017 19:00:00 10,6 -5,9 13,0 11,1 11,3 6 3 30 16 NE 1031,6 - 60 0,0
20.04.2017 18:00:00 11,4 -5,6 17,6 11,0 11,3 8 4 37 20 NE 1031,5 - 60 0,0
20.04.2017 17:00:00 11,6 -5,4 18,6 10,7 11,3 6 3 40 21 NE 1031,5 25 60 0,0
20.04.2017 16:00:00 11,1 -4,6 17,7 10,5 11,3 9 5 36 20 NE 1031,9 25 60 0,0
20.04.2017 15:00:00 10,0 -5,2 21,5 10,4 11,3 12 7 38 21 NE 1032,7 25 60 0,0
20.04.2017 14:00:00 9,5 -5,6 19,9 10,2 11,3 9 5 38 20 NE 1032,8 25 60 0,0
20.04.2017 13:00:00 7,9 -6,3 19,0 10,1 11,3 15 8 37 20 NNE 1033,4 25 60 0,0
20.04.2017 12:00:00 7,8 -4,7 15,7 10,1 11,3 8 4 30 16 ENE 1033,6 25 60 0,0
20.04.2017 11:00:00 5,8 -5,8 12,9 10,2 11,3 10 6 46 25 NNE 1033,9 25 60 0,0
20.04.2017 10:00:00 4,5 -4,8 7,2 10,3 11,3 8 4 28 15 NNE 1034,0 20 60 0,0
20.04.2017 09:00:00 2,0 -5,0 -0,8 10,4 11,3 7 4 25 13 NE 1034,3 20 60 0,0
20.04.2017 08:00:00 -0,3 -5,3 -2,7 10,5 11,3 7 4 22 12 NNE 1034,1 18 43 0,0
20.04.2017 07:00:00 -1,1 -5,5 -2,9 10,7 11,3 5 3 20 11 NNE 1033,6 18 0 0,0
20.04.2017 06:00:00 -0,6 -5,2 -2,9 10,8 11,3 7 4 22 12 NNE 1033,1 15 0 0,0
20.04.2017 05:00:00 -0,3 -5,1 -2,4 10,9 11,4 8 5 25 13 NNE 1033,1 - 0 0,0
20.04.2017 04:00:00 0,2 -4,8 -1,7 11,0 11,3 8 4 22 12 NNE 1032,7 - 0 0,0
20.04.2017 03:00:00 0,7 -4,3 -1,6 11,1 11,3 9 5 24 13 NNE 1032,6 - 0 0,0
20.04.2017 02:00:00 1,2 -3,9 -1,0 11,2 11,3 8 5 22 12 NNE 1032,7 - 0 0,0
20.04.2017 01:00:00 1,8 -3,9 -0,3 11,3 11,4 8 4 21 11 NNE 1032,9 - 0 0,0
20.04.2017 00:00:00 2,4 -4,4 0,3 11,4 11,3 4 2 24 13 NE 1032,8 - 0 0,0
19.04.2017 23:00:00 3,1 -4,6 0,7 11,4 11,4 5 3 25 14 NNE 1032,6 - 0 0,0
19.04.2017 22:00:00 4,3 -4,0 2,4 11,5 11,4 6 4 24 13 NE 1031,9 - 0 0,0
19.04.2017 21:00:00 4,6 -3,2 2,5 11,4 11,4 8 5 23 12 NNE 1031,4 - 0 0,0
19.04.2017 20:00:00 5,8 -3,3 5,1 11,4 11,4 8 5 22 12 NNE 1030,4 - 22 0,0
19.04.2017 19:00:00 5,7 -2,2 4,6 11,3 11,4 11 6 41 22 NNE 1030,2 - 11 0,0
19.04.2017 18:00:00 6,6 -3,1 7,7 11,2 11,4 9 5 44 24 NNE 1029,6 - 43 0,0
19.04.2017 17:00:00 7,9 -3,9 11,3 11,2 11,4 11 6 29 16 NNE 1029,2 25 23 0,0
19.04.2017 16:00:00 6,5 -2,2 5,9 11,0 11,4 9 5 44 24 NNE 1029,5 25 14 0,0
19.04.2017 15:00:00 6,9 -2,6 8,4 10,9 11,4 13 7 31 17 NNE 1029,5 25 19 0,0
19.04.2017 14:00:00 7,8 -4,3 11,2 10,8 11,4 14 8 39 21 N 1029,2 25 25 0,0
19.04.2017 13:00:00 8,8 -2,8 9,1 10,8 11,4 10 5 29 16 NNE 1029,2 25 40 0,0
19.04.2017 12:00:00 7,7 -3,5 11,4 10,8 11,4 11 6 29 16 NE 1029,7 20 44 0,0
19.04.2017 11:00:00 5,0 -2,6 7,8 10,9 11,4 11 6 22 12 NNE 1030,2 20 31 0,0
19.04.2017 10:00:00 4,7 -1,5 6,7 11,0 11,4 9 5 23 12 NNE 1029,9 20 51 0,0
19.04.2017 09:00:00 2,9 -1,1 -0,7 11,1 11,4 5 3 11 6 NNE 1030,0 20 48 0,0
19.04.2017 08:00:00 0,0 -2,1 -5,0 11,3 11,4 0 0 7 4 N 1030,2 20 0 0,0
19.04.2017 07:00:00 -1,0 -2,7 -6,7 11,4 11,4 0 0 9 5 N 1029,8 20 0 0,0
19.04.2017 06:00:00 -1,3 -3,5 -6,0 11,6 11,4 2 1 6 4 NNE 1029,4 20 0 0,0
19.04.2017 05:00:00 -1,3 -3,7 -6,2 11,7 11,4 3 2 7 4 N 1029,2 - 0 0,0
19.04.2017 04:00:00 -0,6 -3,6 -5,5 11,8 11,4 0 0 6 3 N 1028,8 - 0 0,0
19.04.2017 03:00:00 -0,5 -3,5 -5,0 11,9 11,4 0 0 3 2 N 1028,7 - 0 0,0
19.04.2017 02:00:00 0,1 -4,0 -4,3 12,0 11,4 2 1 5 3 N 1028,9 - 0 0,0
19.04.2017 01:00:00 1,3 -4,0 -3,6 12,2 11,4 0 0 7 4 N 1028,7 - 0 0,0
19.04.2017 00:00:00 2,8 -4,0 -1,9 12,2 11,4 2 1 11 6 ENE 1028,3 - 0 0,0
18.04.2017 23:00:00 4,0 -4,2 -0,5 12,3 11,4 7 4 16 9 NNE 1028,0 - 0 0,0
18.04.2017 22:00:00 3,8 -3,9 -0,2 12,3 11,4 6 3 12 6 NNE 1027,4 - 0 0,0
18.04.2017 21:00:00 5,9 -4,9 2,6 12,3 11,4 5 3 23 12 NNE 1026,4 - 14 0,0
18.04.2017 20:00:00 8,5 -8,6 7,6 12,3 11,4 14 8 29 16 N 1025,1 - 55 0,0
18.04.2017 19:00:00 9,7 -8,4 11,2 12,2 11,4 16 9 31 17 NNE 1024,7 - 60 0,0
18.04.2017 18:00:00 9,5 -6,8 12,4 12,0 11,4 15 8 35 19 N 1024,5 - 52 0,0
18.04.2017 17:00:00 10,1 -6,7 14,6 11,9 11,4 12 7 34 18 N 1024,3 30 53 0,0
18.04.2017 16:00:00 9,9 -6,9 16,1 11,7 11,4 14 8 32 17 N 1024,5 - 60 0,0
18.04.2017 15:00:00 8,5 -5,7 10,5 11,7 11,4 16 8 30 16 N 1025,0 - 38 0,0
18.04.2017 14:00:00 8,3 -4,9 12,3 11,5 11,4 13 7 32 18 N 1025,1 30 39 0,0
18.04.2017 13:00:00 7,8 -4,7 11,7 11,5 11,4 15 8 34 18 N 1025,3 30 54 0,0
18.04.2017 12:00:00 7,9 -3,0 17,4 11,5 11,4 15 8 32 18 N 1025,2 30 60 0,0
18.04.2017 11:00:00 7,0 -2,2 12,9 11,5 11,4 10 6 24 13 N 1025,0 - 58 0,0
18.04.2017 10:00:00 5,6 -2,0 7,6 11,7 11,4 11 6 23 13 N 1024,7 30 60 0,0
18.04.2017 09:00:00 4,1 -1,9 0,2 11,8 11,4 7 4 21 11 N 1024,6 - 60 0,0
18.04.2017 08:00:00 2,5 -1,3 -0,7 11,9 11,4 8 4 15 8 NNE 1024,5 - 39 0,0
18.04.2017 07:00:00 1,9 -1,2 -0,6 12,0 11,4 5 3 16 9 NNE 1023,8 20 0 0,0
18.04.2017 06:00:00 2,5 -0,4 -0,2 12,2 11,4 7 4 22 12 N 1023,3 15 0 0,0
18.04.2017 05:00:00 3,5 0,0 -1,5 12,3 11,4 12 6 20 11 N 1022,8 - 0 0,0
18.04.2017 04:00:00 2,9 0,6 -1,4 12,4 11,4 2 1 11 6 NNE 1022,5 - 0 0,0
18.04.2017 03:00:00 4,6 1,1 1,8 12,5 11,4 8 4 20 11 N 1022,3 - 0 0,0
18.04.2017 02:00:00 5,7 2,5 4,5 12,5 11,4 10 5 24 13 N 1022,2 - 0 0,0
18.04.2017 01:00:00 6,7 3,8 5,1 12,6 11,4 9 5 18 10 N 1022,2 - 0 0,0
18.04.2017 00:00:00 6,7 4,5 4,7 12,6 11,4 5 3 10 5 N 1022,0 - 0 0,0
17.04.2017 23:00:00 7,4 4,9 6,5 12,6 11,4 3 2 15 8 NNE 1021,7 - 0 0,0

tt = Température de l'air
td = dewpoint
tt 5cm = Température de l'air 5cm
tt -20cm = Température de l'air -20cm
tt -100cm = Température de l'air -100cm
ff = Vitesse du vent
fx = gusts
dd = Direction du vent
ppp = reduced air pressure
vv = visibility
sd = Ensoleillement
rr = Quantités de précipitations

stations d'obs. à proximité